| time (UTC) | temp F | wind direction | speed knots | gust knots | rain 1hr in | rain 24hr in | rain mn in | humidity % | barometer mb |
| 20260505061802 | 61 | 1.7 | 0.0 | 0.00 | 0.00 | 0.00 | 68 | 1016.0 | |
| 20260505060302 | 61 | 1.7 | 0.0 | 0.00 | 0.00 | 0.00 | 68 | 1016.0 | |
| 20260505054802 | 61 | 0.9 | 0.0 | 0.00 | 0.00 | 0.00 | 63 | 1016.0 | |
| 20260505053302 | 61 | 0.9 | 0.0 | 0.00 | 0.00 | 0.00 | 63 | 1016.0 | |
| 20260505051802 | 55 | 20 | 2.6 | 0.0 | 0.00 | 0.00 | 0.00 | 77 | 1016.0 |
| 20260505050302 | 55 | 20 | 2.6 | 0.0 | 0.00 | 0.00 | 0.00 | 77 | 1016.0 |
| 20260505040301 | 50 | 1.7 | 0.0 | 0.00 | 0.00 | 0.00 | 88 | 1015.0 | |
| 20260505034802 | 48 | 350 | 2.6 | 0.0 | 0.00 | 0.00 | 0.00 | 94 | 1015.0 |
| 20260505033302 | 48 | 350 | 2.6 | 0.0 | 0.00 | 0.00 | 0.00 | 94 | 1015.0 |
| 20260505031802 | 46 | 0.9 | 0.0 | 0.00 | 0.00 | 0.00 | 93 | 1015.0 | |
| 20260505030302 | 46 | 0.9 | 0.0 | 0.00 | 0.00 | 0.00 | 93 | 1015.0 | |
| 20260505024802 | 48 | 350 | 2.6 | 0.0 | 0.00 | 0.00 | 0.00 | 94 | 1015.0 |
| 20260505023302 | 48 | 350 | 2.6 | 0.0 | 0.00 | 0.00 | 0.00 | 94 | 1015.0 |
| 20260505021802 | 46 | 1.7 | 0.0 | 0.00 | 0.00 | 0.00 | 93 | 1015.0 | |
| 20260505020302 | 46 | 1.7 | 0.0 | 0.00 | 0.00 | 0.00 | 93 | 1015.0 | |
| 20260505014801 | 48 | 30 | 1.7 | 0.0 | 0.00 | 0.00 | 0.00 | 94 | 1015.0 |
| 20260505013302 | 48 | 30 | 1.7 | 0.0 | 0.00 | 0.00 | 0.00 | 94 | 1015.0 |
| 20260505011802 | 48 | 70 | 2.6 | 0.0 | 0.00 | 0.00 | 0.00 | 87 | 1015.0 |
| 20260505010302 | 48 | 70 | 2.6 | 0.0 | 0.00 | 0.00 | 0.00 | 87 | 1015.0 |
| 20260505004802 | 50 | 1.7 | 0.0 | 0.00 | 0.00 | 0.00 | 88 | 1015.0 | |
| 20260505003302 | 50 | 1.7 | 0.0 | 0.00 | 0.00 | 0.00 | 88 | 1015.0 | |
| 20260505001802 | 52 | 30 | 2.6 | 0.0 | 0.00 | 0.00 | 0.00 | 82 | 1015.0 |
| 20260505000302 | 52 | 30 | 2.6 | 0.0 | 0.00 | 0.00 | 0.00 | 82 | 1015.0 |
| 20260504234802 | 52 | 30 | 0.9 | 0.0 | 0.00 | 0.00 | 0.00 | 82 | 1015.0 |
| 20260504233302 | 52 | 30 | 0.9 | 0.0 | 0.00 | 0.00 | 0.00 | 82 | 1015.0 |
| 20260504231802 | 52 | 1.7 | 0.0 | 0.00 | 0.00 | 0.00 | 82 | 1015.0 | |
| 20260504230302 | 52 | 1.7 | 0.0 | 0.00 | 0.00 | 0.00 | 82 | 1015.0 | |
| 20260504224801 | 54 | 1.7 | 0.0 | 0.00 | 0.00 | 0.00 | 77 | 1015.0 | |
| 20260504223302 | 54 | 1.7 | 0.0 | 0.00 | 0.00 | 0.00 | 77 | 1015.0 | |
| 20260504221825 | 54 | 40 | 4.3 | 0.0 | 0.00 | 0.00 | 0.00 | 77 | 1015.0 |
| 20260504220302 | 54 | 40 | 4.3 | 0.0 | 0.00 | 0.00 | 0.00 | 77 | 1015.0 |
| 20260504214802 | 54 | 50 | 2.6 | 0.0 | 0.00 | 0.00 | 0.00 | 77 | 1015.0 |
| 20260504213318 | 54 | 50 | 2.6 | 0.0 | 0.00 | 0.00 | 0.00 | 77 | 1015.0 |
| 20260504211801 | 55 | 30 | 2.6 | 0.0 | 0.00 | 0.00 | 0.00 | 72 | 1015.0 |
| 20260504210302 | 55 | 30 | 2.6 | 0.0 | 0.00 | 0.00 | 0.00 | 72 | 1015.0 |
| 20260504204802 | 55 | 0 | 0.0 | 0.0 | 0.00 | 0.00 | 0.00 | 72 | 1015.0 |
| 20260504203303 | 55 | 0 | 0.0 | 0.0 | 0.00 | 0.00 | 0.00 | 72 | 1015.0 |
| 20260504201801 | 55 | 0 | 0.0 | 0.0 | 0.00 | 0.00 | 0.00 | 72 | 1015.0 |
| 20260504200302 | 55 | 0 | 0.0 | 0.0 | 0.00 | 0.00 | 0.00 | 72 | 1015.0 |
| 20260504194802 | 55 | 110 | 2.6 | 0.0 | 0.00 | 0.00 | 0.00 | 72 | 1015.0 |
| 20260504193302 | 55 | 110 | 2.6 | 0.0 | 0.00 | 0.00 | 0.00 | 72 | 1015.0 |
| 20260504191802 | 57 | 150 | 5.2 | 0.0 | 0.00 | 0.00 | 0.00 | 67 | 1015.0 |
| 20260504190302 | 57 | 150 | 5.2 | 0.0 | 0.00 | 0.00 | 0.00 | 67 | 1015.0 |
| 20260504184802 | 59 | 160 | 5.2 | 0.0 | 0.00 | 0.00 | 0.00 | 68 | 1015.0 |
| 20260504183312 | 59 | 160 | 5.2 | 0.0 | 0.00 | 0.00 | 0.00 | 68 | 1015.0 |
| 20260504181802 | 59 | 120 | 2.6 | 0.0 | 0.00 | 0.00 | 0.00 | 68 | 1015.0 |
| 20260504180302 | 59 | 120 | 2.6 | 0.0 | 0.00 | 0.00 | 0.00 | 68 | 1015.0 |
| 20260504174802 | 61 | 110 | 4.3 | 0.0 | 0.00 | 0.00 | 0.00 | 63 | 1015.0 |
| 20260504173302 | 61 | 110 | 4.3 | 0.0 | 0.00 | 0.00 | 0.00 | 63 | 1015.0 |
| 20260504171802 | 64 | 120 | 4.3 | 0.0 | 0.00 | 0.00 | 0.00 | 56 | 1015.0 |
| 20260504170302 | 64 | 120 | 4.3 | 0.0 | 0.00 | 0.00 | 0.00 | 56 | 1015.0 |
| 20260504160303 | 68 | 120 | 5.2 | 0.0 | 0.00 | 0.00 | 0.00 | 49 | 1014.0 |
| 20260504150302 | 70 | 0.9 | 0.0 | 0.00 | 0.00 | 0.00 | 38 | 1015.0 | |
| 20260504140303 | 70 | 1.7 | 0.0 | 0.00 | 0.00 | 0.00 | 38 | 1015.0 | |
| 20260504130302 | 70 | 100 | 5.2 | 0.0 | 0.00 | 0.00 | 0.00 | 38 | 1015.0 |
| 20260504120301 | 70 | 80 | 4.3 | 0.0 | 0.00 | 0.00 | 0.00 | 38 | 1015.0 |
| 20260504110302 | 68 | 1.7 | 0.0 | 0.00 | 0.00 | 0.00 | 35 | 1016.0 | |
| 20260504100302 | 68 | 0.9 | 0.0 | 0.00 | 0.00 | 0.00 | 38 | 1016.0 | |
| 20260504081802 | 64 | 260 | 4.3 | 0.0 | 0.00 | 0.00 | 0.00 | 43 | 1017.0 |
| 20260504080301 | 64 | 260 | 4.3 | 0.0 | 0.00 | 0.00 | 0.00 | 43 | 1017.0 |
| 20260504070303 | 61 | 260 | 2.6 | 0.0 | 0.00 | 0.00 | 0.00 | 48 | 1017.0 |